This is the latest recevied weather packets stored in our database for station/object SR6NWB-11. If no packets are shown the sender has not sent any weather packets the latest 10 day(s).
| Time | Temp. | Humidity | Pressure | Rain* | Wind** | Luminosity | Snow |
|---|---|---|---|---|---|---|---|
| 1777306483 | 12.22° C | 24% | 1023.8 hPa | 0 mm | - | - | - |
| 1777304356 | 13.33° C | 23% | 1024 hPa | 0 mm | - | - | - |
| 1777303771 | 13.33° C | 23% | 1024 hPa | 0 mm | - | - | - |
| 1777303271 | 13.33° C | 23% | 1024 hPa | 0 mm | - | - | - |
| 1777300806 | 13.33° C | 23% | 1024.2 hPa | 0 mm | - | - | - |
| 1777300301 | 13.33° C | 23% | 1024.2 hPa | 0 mm | - | - | - |
| 1777299806 | 13.33° C | 23% | 1024.3 hPa | 0 mm | - | - | - |
| 1777299323 | 13.33° C | 24% | 1024.5 hPa | 0 mm | - | - | - |
| 1777295701 | 11.67° C | 26% | 1024.7 hPa | 0 mm | - | - | - |
| 1777295166 | 11.67° C | 27% | 1024.7 hPa | 0 mm | - | - | - |
| 1777294571 | 11.11° C | 27% | 1024.8 hPa | 0 mm | - | - | - |
| 1777294061 | 11.67° C | 27% | 1024.8 hPa | 0 mm | - | - | - |
| 1777293486 | 11.67° C | 27% | 1024.8 hPa | 0 mm | - | - | - |
| 1777292911 | 11.67° C | 27% | 1025 hPa | 0 mm | - | - | - |
| 1777292371 | 11.67° C | 27% | 1024.9 hPa | 0 mm | - | - | - |
| 1777291821 | 11.67° C | 27% | 1024.9 hPa | 0 mm | - | - | - |
| 1777291301 | 11.67° C | 27% | 1025.1 hPa | 0 mm | - | - | - |
| 1777290746 | 11.67° C | 27% | 1025.2 hPa | 0 mm | - | - | - |
| 1777289716 | 11.11° C | 27% | 1025.1 hPa | 0 mm | - | - | - |
| 1777289186 | 11.11° C | 27% | 1025.2 hPa | 0 mm | - | - | - |
| 1777288701 | 11.11° C | 27% | 1025.2 hPa | 0 mm | - | - | - |
| 1777288131 | 11.11° C | 27% | 1025.3 hPa | 0 mm | - | - | - |
| 1777287626 | 11.11° C | 27% | 1025.2 hPa | 0 mm | - | - | - |
| 1777286125 | 10° C | 27% | 1025.3 hPa | 0 mm | - | - | - |
| 1777285556 | 10° C | 27% | 1025.3 hPa | 0 mm | - | - | - |
* Rain latest hour (hover to see other rain measurements)
** Current wind speed in m/s (hover to see current wind gust speed)